Year,Month,Day,Hour,Minute,Value (Times are PST for temperature in C)
2011,10,23,00,00,11.70
2011,10,23,00,01,11.60
2011,10,23,00,02,11.60
2011,10,23,00,03,11.60
2011,10,23,00,04,11.50
2011,10,23,00,05,11.40
2011,10,23,00,06,11.50
2011,10,23,00,07,11.50
2011,10,23,00,08,11.60
2011,10,23,00,09,11.60
2011,10,23,00,10,11.70
2011,10,23,00,11,11.70
2011,10,23,00,12,11.60
2011,10,23,00,13,11.60
2011,10,23,00,14,11.60
2011,10,23,00,15,11.50
2011,10,23,00,16,11.40
2011,10,23,00,17,11.40
2011,10,23,00,18,11.30
2011,10,23,00,19,11.20
2011,10,23,00,20,11.10
2011,10,23,00,21,11.00
2011,10,23,00,22,11.00
2011,10,23,00,23,10.90
2011,10,23,00,24,10.70
2011,10,23,00,25,10.60
2011,10,23,00,26,10.50
2011,10,23,00,27,10.40
2011,10,23,00,28,10.30
2011,10,23,00,29,10.20
2011,10,23,00,30,10.20
2011,10,23,00,31,10.20
2011,10,23,00,32,10.20
2011,10,23,00,33,10.20
2011,10,23,00,34,10.20
2011,10,23,00,35,10.20
2011,10,23,00,36,10.10
2011,10,23,00,37,10.10
2011,10,23,00,38,10.10
2011,10,23,00,39,10.10
2011,10,23,00,40,10.10
2011,10,23,00,41,10.10
2011,10,23,00,42,10.00
2011,10,23,00,43,9.90
2011,10,23,00,44,9.90
2011,10,23,00,45,9.80
2011,10,23,00,46,9.70
2011,10,23,00,47,9.60
2011,10,23,00,48,9.40
2011,10,23,00,49,9.30
2011,10,23,00,50,9.20
2011,10,23,00,51,9.10
2011,10,23,00,52,9.00
2011,10,23,00,53,9.00
2011,10,23,00,54,8.90
2011,10,23,00,55,8.80
2011,10,23,00,56,8.80
2011,10,23,00,57,8.80
2011,10,23,00,58,8.70
2011,10,23,00,59,8.70
2011,10,23,01,00,8.60
2011,10,23,01,01,8.60
2011,10,23,01,02,8.50
2011,10,23,01,03,8.50
2011,10,23,01,04,8.40
2011,10,23,01,05,8.30
2011,10,23,01,06,8.30
2011,10,23,01,07,8.30
2011,10,23,01,08,8.20
2011,10,23,01,09,8.20
2011,10,23,01,10,8.20
2011,10,23,01,11,8.20
2011,10,23,01,12,8.20
2011,10,23,01,13,8.10
2011,10,23,01,14,8.10
2011,10,23,01,15,8.10
2011,10,23,01,16,8.00
2011,10,23,01,17,8.00
2011,10,23,01,18,8.00
2011,10,23,01,19,7.90
2011,10,23,01,20,7.90
2011,10,23,01,21,7.90
2011,10,23,01,22,7.90
2011,10,23,01,23,7.90
2011,10,23,01,24,7.90
2011,10,23,01,25,7.80
2011,10,23,01,26,7.80
2011,10,23,01,27,7.80
2011,10,23,01,28,7.70
2011,10,23,01,29,7.70
2011,10,23,01,30,7.70
2011,10,23,01,31,7.60
2011,10,23,01,32,7.60
2011,10,23,01,33,7.60
2011,10,23,01,34,7.60
2011,10,23,01,35,7.60
2011,10,23,01,36,7.60
2011,10,23,01,37,7.60
2011,10,23,01,38,7.60
2011,10,23,01,39,7.60
2011,10,23,01,40,7.60
2011,10,23,01,41,7.60
2011,10,23,01,42,7.50
2011,10,23,01,43,7.40
2011,10,23,01,44,7.40
2011,10,23,01,45,7.40
2011,10,23,01,46,7.30
2011,10,23,01,47,7.30
2011,10,23,01,48,7.30
2011,10,23,01,49,7.30
2011,10,23,01,50,7.20
2011,10,23,01,51,7.20
2011,10,23,01,52,7.20
2011,10,23,01,53,7.20
2011,10,23,01,54,7.20
2011,10,23,01,55,7.10
2011,10,23,01,56,7.10
2011,10,23,01,57,7.10
2011,10,23,01,58,7.10
2011,10,23,01,59,7.10
2011,10,23,02,00,7.10
2011,10,23,02,01,7.10
2011,10,23,02,02,7.00
2011,10,23,02,03,7.00
2011,10,23,02,04,7.00
2011,10,23,02,05,7.00
2011,10,23,02,06,7.10
2011,10,23,02,07,7.00
2011,10,23,02,08,7.00
2011,10,23,02,09,7.00
2011,10,23,02,10,7.00
2011,10,23,02,11,6.90
2011,10,23,02,12,6.90
2011,10,23,02,13,6.90
2011,10,23,02,14,6.90
2011,10,23,02,15,6.90
2011,10,23,02,16,6.90
2011,10,23,02,17,6.90
2011,10,23,02,18,6.90
2011,10,23,02,19,6.90
2011,10,23,02,20,6.90
2011,10,23,02,21,6.90
2011,10,23,02,22,6.90
2011,10,23,02,23,6.90
2011,10,23,02,24,7.00
2011,10,23,02,25,7.00
2011,10,23,02,26,7.00
2011,10,23,02,27,7.10
2011,10,23,02,28,7.00
2011,10,23,02,29,7.00
2011,10,23,02,30,6.90
2011,10,23,02,31,6.90
2011,10,23,02,32,6.80
2011,10,23,02,33,6.80
2011,10,23,02,34,6.80
2011,10,23,02,35,6.70
2011,10,23,02,36,6.70
2011,10,23,02,37,6.70
2011,10,23,02,38,6.60
2011,10,23,02,39,6.60
2011,10,23,02,40,6.60
2011,10,23,02,41,6.60
2011,10,23,02,42,6.60
2011,10,23,02,43,6.60
2011,10,23,02,44,6.50
2011,10,23,02,45,6.50
2011,10,23,02,46,6.40
2011,10,23,02,47,6.40
2011,10,23,02,48,6.40
2011,10,23,02,49,6.40
2011,10,23,02,50,6.30
2011,10,23,02,51,6.30
2011,10,23,02,52,6.30
2011,10,23,02,53,6.30
2011,10,23,02,54,6.20
2011,10,23,02,55,6.20
2011,10,23,02,56,6.20
2011,10,23,02,57,6.20
2011,10,23,02,58,6.20
2011,10,23,02,59,6.20
2011,10,23,03,00,6.20
2011,10,23,03,01,6.20
2011,10,23,03,02,6.20
2011,10,23,03,03,6.20
2011,10,23,03,04,6.20
2011,10,23,03,05,6.20
2011,10,23,03,06,6.20
2011,10,23,03,07,6.20
2011,10,23,03,08,6.20
2011,10,23,03,09,6.30
2011,10,23,03,10,6.30
2011,10,23,03,11,6.30
2011,10,23,03,12,6.30
2011,10,23,03,13,6.40
2011,10,23,03,14,6.40
2011,10,23,03,15,6.30
2011,10,23,03,16,6.30
2011,10,23,03,17,6.30
2011,10,23,03,18,6.30
2011,10,23,03,19,6.30
2011,10,23,03,20,6.20
2011,10,23,03,21,6.20
2011,10,23,03,22,6.20
2011,10,23,03,23,6.10
2011,10,23,03,24,6.10
2011,10,23,03,25,6.00
2011,10,23,03,26,6.00
2011,10,23,03,27,5.90
2011,10,23,03,28,5.90
2011,10,23,03,29,5.90
2011,10,23,03,30,5.90
2011,10,23,03,31,5.90
2011,10,23,03,32,5.90
2011,10,23,03,33,5.90
2011,10,23,03,34,5.90
2011,10,23,03,35,5.90
2011,10,23,03,36,5.80
2011,10,23,03,37,5.80
2011,10,23,03,38,5.80
2011,10,23,03,39,5.80
2011,10,23,03,40,5.80
2011,10,23,03,41,5.80
2011,10,23,03,42,5.80
2011,10,23,03,43,5.80
2011,10,23,03,44,5.80
2011,10,23,03,45,5.80
2011,10,23,03,46,5.80
2011,10,23,03,47,5.80
2011,10,23,03,48,5.80
2011,10,23,03,49,5.70
2011,10,23,03,50,5.70
2011,10,23,03,51,5.70
2011,10,23,03,52,5.60
2011,10,23,03,53,5.60
2011,10,23,03,54,5.50
2011,10,23,03,55,5.50
2011,10,23,03,56,5.50
2011,10,23,03,57,5.40
2011,10,23,03,58,5.40
2011,10,23,03,59,5.40
2011,10,23,04,00,5.40
2011,10,23,04,01,5.40
2011,10,23,04,02,5.40
2011,10,23,04,03,5.40
2011,10,23,04,04,5.40
2011,10,23,04,05,5.50
2011,10,23,04,06,5.50
2011,10,23,04,07,5.60
2011,10,23,04,08,5.60
2011,10,23,04,09,5.70
2011,10,23,04,10,5.70
2011,10,23,04,11,5.70
2011,10,23,04,12,5.80
2011,10,23,04,13,5.80
2011,10,23,04,14,5.90
2011,10,23,04,15,5.90
2011,10,23,04,16,5.90
2011,10,23,04,17,5.90
2011,10,23,04,18,5.90
2011,10,23,04,19,5.90
2011,10,23,04,20,6.00
2011,10,23,04,21,6.00
2011,10,23,04,22,6.00
2011,10,23,04,23,5.90
2011,10,23,04,24,5.80
2011,10,23,04,25,5.80
2011,10,23,04,26,5.80
2011,10,23,04,27,5.70
2011,10,23,04,28,5.70
2011,10,23,04,29,5.60
2011,10,23,04,30,5.60
2011,10,23,04,31,5.60
2011,10,23,04,32,5.60
2011,10,23,04,33,5.70
2011,10,23,04,34,5.80
2011,10,23,04,35,5.80
2011,10,23,04,36,5.80
2011,10,23,04,37,5.80
2011,10,23,04,38,5.80
2011,10,23,04,39,5.80
2011,10,23,04,40,5.80
2011,10,23,04,41,5.70
2011,10,23,04,42,5.60
2011,10,23,04,43,5.50
2011,10,23,04,44,5.40
2011,10,23,04,45,5.40
2011,10,23,04,46,5.30
2011,10,23,04,47,5.30
2011,10,23,04,48,5.20
2011,10,23,04,49,5.20
2011,10,23,04,50,5.20
2011,10,23,04,51,5.20
2011,10,23,04,52,5.10
2011,10,23,04,53,5.10
2011,10,23,04,54,5.10
2011,10,23,04,55,5.10
2011,10,23,04,56,5.10
2011,10,23,04,57,5.20
2011,10,23,04,58,5.10
2011,10,23,04,59,5.10
2011,10,23,05,00,5.10
2011,10,23,05,01,5.10
2011,10,23,05,02,5.10
2011,10,23,05,03,5.10
2011,10,23,05,04,5.10
2011,10,23,05,05,5.10
2011,10,23,05,06,5.10
2011,10,23,05,07,5.10
2011,10,23,05,08,5.10
2011,10,23,05,09,5.10
2011,10,23,05,10,5.10
2011,10,23,05,11,5.10
2011,10,23,05,12,5.10
2011,10,23,05,13,5.10
2011,10,23,05,14,5.10
2011,10,23,05,15,5.10
2011,10,23,05,16,5.10
2011,10,23,05,17,5.10
2011,10,23,05,18,5.10
2011,10,23,05,19,5.10
2011,10,23,05,20,5.10
2011,10,23,05,21,5.10
2011,10,23,05,22,5.10
2011,10,23,05,23,5.10
2011,10,23,05,24,5.10
2011,10,23,05,25,5.10
2011,10,23,05,26,5.10
2011,10,23,05,27,5.10
2011,10,23,05,28,5.10
2011,10,23,05,29,5.20
2011,10,23,05,30,5.20
2011,10,23,05,31,5.20
2011,10,23,05,32,5.20
2011,10,23,05,33,5.20
2011,10,23,05,34,5.20
2011,10,23,05,35,5.20
2011,10,23,05,36,5.10
2011,10,23,05,37,5.10
2011,10,23,05,38,5.00
2011,10,23,05,39,5.00
2011,10,23,05,40,5.00
2011,10,23,05,41,5.00
2011,10,23,05,42,5.00
2011,10,23,05,43,5.00
2011,10,23,05,44,5.00
2011,10,23,05,45,5.00
2011,10,23,05,46,5.10
2011,10,23,05,47,5.10
2011,10,23,05,48,5.10
2011,10,23,05,49,5.10
2011,10,23,05,50,5.10
2011,10,23,05,51,5.10
2011,10,23,05,52,5.10
2011,10,23,05,53,5.10
2011,10,23,05,54,5.10
2011,10,23,05,55,5.10
2011,10,23,05,56,5.10
2011,10,23,05,57,5.10
2011,10,23,05,58,5.00
2011,10,23,05,59,5.00
2011,10,23,06,00,4.90
2011,10,23,06,01,4.90
2011,10,23,06,02,4.90
2011,10,23,06,03,4.80
2011,10,23,06,04,4.80
2011,10,23,06,05,4.80
2011,10,23,06,06,4.80
2011,10,23,06,07,4.80
2011,10,23,06,08,4.70
2011,10,23,06,09,4.70
2011,10,23,06,10,4.70
2011,10,23,06,11,4.70
2011,10,23,06,12,4.70
2011,10,23,06,13,4.70
2011,10,23,06,14,4.70
2011,10,23,06,15,4.70
2011,10,23,06,16,4.70
2011,10,23,06,17,4.80
2011,10,23,06,18,4.80
2011,10,23,06,19,4.80
2011,10,23,06,20,4.80
2011,10,23,06,21,4.80
2011,10,23,06,22,4.80
2011,10,23,06,23,4.80
2011,10,23,06,24,4.80
2011,10,23,06,25,4.80
2011,10,23,06,26,4.80
2011,10,23,06,27,4.80
2011,10,23,06,28,4.80
2011,10,23,06,29,4.80
2011,10,23,06,30,4.80
2011,10,23,06,31,4.80
2011,10,23,06,32,4.80
2011,10,23,06,33,4.70
2011,10,23,06,34,4.70
2011,10,23,06,35,4.70
2011,10,23,06,36,4.70
2011,10,23,06,37,4.60
2011,10,23,06,38,4.60
2011,10,23,06,39,4.60
2011,10,23,06,40,4.50
2011,10,23,06,41,4.50
2011,10,23,06,42,4.50
2011,10,23,06,43,4.50
2011,10,23,06,44,4.50
2011,10,23,06,45,4.50
2011,10,23,06,46,4.50
2011,10,23,06,47,4.60
2011,10,23,06,48,4.60
2011,10,23,06,49,4.60
2011,10,23,06,50,4.60
2011,10,23,06,51,4.60
2011,10,23,06,52,4.60
2011,10,23,06,53,4.60
2011,10,23,06,54,4.60
2011,10,23,06,55,4.60
2011,10,23,06,56,4.60
2011,10,23,06,57,4.70
2011,10,23,06,58,4.70
2011,10,23,06,59,4.70
2011,10,23,07,00,4.70
2011,10,23,07,01,4.70
2011,10,23,07,02,4.70
2011,10,23,07,03,4.70
2011,10,23,07,04,4.70
2011,10,23,07,05,4.80
2011,10,23,07,06,4.80
2011,10,23,07,07,4.90
2011,10,23,07,08,4.90
2011,10,23,07,09,4.90
2011,10,23,07,10,4.90
2011,10,23,07,11,4.90
2011,10,23,07,12,4.90
2011,10,23,07,13,4.80
2011,10,23,07,14,4.80
2011,10,23,07,15,4.80
2011,10,23,07,16,4.70
2011,10,23,07,17,4.70
2011,10,23,07,18,4.50
2011,10,23,07,19,4.40
2011,10,23,07,20,4.30
2011,10,23,07,21,4.30
2011,10,23,07,22,4.10
2011,10,23,07,23,3.90
2011,10,23,07,24,3.80
2011,10,23,07,25,3.70
2011,10,23,07,26,3.60
2011,10,23,07,27,3.60
2011,10,23,07,28,3.60
2011,10,23,07,29,3.60
2011,10,23,07,30,3.60
2011,10,23,07,31,3.60
2011,10,23,07,32,3.60
2011,10,23,07,33,3.70
2011,10,23,07,34,3.70
2011,10,23,07,35,3.60
2011,10,23,07,36,3.70
2011,10,23,07,37,3.70
2011,10,23,07,38,3.70
2011,10,23,07,39,3.70
2011,10,23,07,40,3.70
2011,10,23,07,41,3.70
2011,10,23,07,42,3.70
2011,10,23,07,43,3.60
2011,10,23,07,44,3.70
2011,10,23,07,45,3.70
2011,10,23,07,46,3.70
2011,10,23,07,47,3.70
2011,10,23,07,48,3.70
2011,10,23,07,49,3.70
2011,10,23,07,50,3.80
2011,10,23,07,51,3.80
2011,10,23,07,52,3.80
2011,10,23,07,53,3.80
2011,10,23,07,54,3.90
2011,10,23,07,55,3.90
2011,10,23,07,56,3.90
2011,10,23,07,57,3.90
2011,10,23,07,58,3.90
2011,10,23,07,59,3.90
2011,10,23,08,00,3.80
2011,10,23,08,01,3.80
2011,10,23,08,02,3.80
2011,10,23,08,03,3.80
2011,10,23,08,04,3.80
2011,10,23,08,05,3.80
2011,10,23,08,06,3.80
2011,10,23,08,07,3.90
2011,10,23,08,08,3.90
2011,10,23,08,09,3.90
2011,10,23,08,10,3.90
2011,10,23,08,11,3.90
2011,10,23,08,12,3.90
2011,10,23,08,13,3.90
2011,10,23,08,14,4.00
2011,10,23,08,15,4.00
2011,10,23,08,16,4.10
2011,10,23,08,17,4.10
2011,10,23,08,18,4.10
2011,10,23,08,19,4.20
2011,10,23,08,20,4.30
2011,10,23,08,21,4.30
2011,10,23,08,22,4.40
2011,10,23,08,23,4.30
2011,10,23,08,24,4.30
2011,10,23,08,25,4.30
2011,10,23,08,26,4.20
2011,10,23,08,27,4.20
2011,10,23,08,28,4.30
2011,10,23,08,29,4.30
2011,10,23,08,30,4.30
2011,10,23,08,31,4.30
2011,10,23,08,32,4.30
2011,10,23,08,33,4.30
2011,10,23,08,34,4.30
2011,10,23,08,35,4.40
2011,10,23,08,36,4.40
2011,10,23,08,37,4.40
2011,10,23,08,38,4.50
2011,10,23,08,39,4.50
2011,10,23,08,40,4.60
2011,10,23,08,41,4.60
2011,10,23,08,42,4.70
2011,10,23,08,43,4.70
2011,10,23,08,44,4.80
2011,10,23,08,45,4.80
2011,10,23,08,46,4.80
2011,10,23,08,47,4.90
2011,10,23,08,48,4.90
2011,10,23,08,49,5.00
2011,10,23,08,50,5.00
2011,10,23,08,51,5.10
2011,10,23,08,52,5.10
2011,10,23,08,53,5.00
2011,10,23,08,54,5.00
2011,10,23,08,55,4.90
2011,10,23,08,56,4.90
2011,10,23,08,57,4.90
2011,10,23,08,58,4.90
2011,10,23,08,59,5.00
2011,10,23,09,00,5.10
2011,10,23,09,01,5.10
2011,10,23,09,02,5.20
2011,10,23,09,03,5.30
2011,10,23,09,04,5.40
2011,10,23,09,05,5.50
2011,10,23,09,06,5.60
2011,10,23,09,07,5.70
2011,10,23,09,08,5.80
2011,10,23,09,09,5.80
2011,10,23,09,10,5.90
2011,10,23,09,11,6.00
2011,10,23,09,12,6.10
2011,10,23,09,13,6.20
2011,10,23,09,14,6.20
2011,10,23,09,15,6.30
2011,10,23,09,16,6.30
2011,10,23,09,17,6.40
2011,10,23,09,18,6.40
2011,10,23,09,19,6.40
2011,10,23,09,20,6.40
2011,10,23,09,21,6.30
2011,10,23,09,22,6.30
2011,10,23,09,23,6.30
2011,10,23,09,24,6.30
2011,10,23,09,25,6.30
2011,10,23,09,26,6.30
2011,10,23,09,27,6.30
2011,10,23,09,28,6.30
2011,10,23,09,29,6.30
2011,10,23,09,30,6.40
2011,10,23,09,31,6.40
2011,10,23,09,32,6.40
2011,10,23,09,33,6.40
2011,10,23,09,34,6.50
2011,10,23,09,35,6.50
2011,10,23,09,36,6.60
2011,10,23,09,37,6.60
2011,10,23,09,38,6.70
2011,10,23,09,39,6.70
2011,10,23,09,40,6.80
2011,10,23,09,41,6.90
2011,10,23,09,42,7.00
2011,10,23,09,43,7.00
2011,10,23,09,44,7.10
2011,10,23,09,45,7.20
2011,10,23,09,46,7.30
2011,10,23,09,47,7.50
2011,10,23,09,48,7.60
2011,10,23,09,49,7.70
2011,10,23,09,50,7.80
2011,10,23,09,51,7.90
2011,10,23,09,52,8.10
2011,10,23,09,53,8.20
2011,10,23,09,54,8.30
2011,10,23,09,55,8.40
2011,10,23,09,56,8.40
2011,10,23,09,57,8.50
2011,10,23,09,58,8.60
2011,10,23,09,59,8.60
2011,10,23,10,00,8.70
2011,10,23,10,01,8.80
2011,10,23,10,02,8.90
2011,10,23,10,03,9.00
2011,10,23,10,04,9.10
2011,10,23,10,05,9.10
2011,10,23,10,06,9.20
2011,10,23,10,07,9.30
2011,10,23,10,08,9.30
2011,10,23,10,09,9.40
2011,10,23,10,10,9.50
2011,10,23,10,11,9.60
2011,10,23,10,12,9.60
2011,10,23,10,13,9.70
2011,10,23,10,14,9.70
2011,10,23,10,15,9.70
2011,10,23,10,16,9.70
2011,10,23,10,17,9.70
2011,10,23,10,18,9.70
2011,10,23,10,19,9.70
2011,10,23,10,20,9.80
2011,10,23,10,21,9.80
2011,10,23,10,22,9.90
2011,10,23,10,23,10.00
2011,10,23,10,24,10.00
2011,10,23,10,25,10.10
2011,10,23,10,26,10.10
2011,10,23,10,27,10.20
2011,10,23,10,28,10.20
2011,10,23,10,29,10.20
2011,10,23,10,30,10.20
2011,10,23,10,31,10.30
2011,10,23,10,32,10.30
2011,10,23,10,33,10.40
2011,10,23,10,34,10.50
2011,10,23,10,35,10.60
2011,10,23,10,36,10.70
2011,10,23,10,37,10.80
2011,10,23,10,38,11.00
2011,10,23,10,39,11.10
2011,10,23,10,40,11.10
2011,10,23,10,41,11.20
2011,10,23,10,42,11.30
2011,10,23,10,43,11.40
2011,10,23,10,44,11.50
2011,10,23,10,45,11.60
2011,10,23,10,46,11.80
2011,10,23,10,47,11.90
2011,10,23,10,48,12.10
2011,10,23,10,49,12.20
2011,10,23,10,50,12.40
2011,10,23,10,51,12.50
2011,10,23,10,52,12.60
2011,10,23,10,53,12.70
2011,10,23,10,54,12.70
2011,10,23,10,55,12.80
2011,10,23,10,56,12.80
2011,10,23,10,57,12.80
2011,10,23,10,58,12.80
2011,10,23,10,59,12.80
2011,10,23,11,00,12.80
2011,10,23,11,01,12.90
2011,10,23,11,02,12.90
2011,10,23,11,03,13.00
2011,10,23,11,04,13.10
2011,10,23,11,05,13.20
2011,10,23,11,06,13.30
2011,10,23,11,07,13.40
2011,10,23,11,08,13.40
2011,10,23,11,09,13.40
2011,10,23,11,10,13.50
2011,10,23,11,11,13.50
2011,10,23,11,12,13.50
2011,10,23,11,13,13.60
2011,10,23,11,14,13.70
2011,10,23,11,15,13.70
2011,10,23,11,16,13.70
2011,10,23,11,17,13.70
2011,10,23,11,18,13.70
2011,10,23,11,19,13.70
2011,10,23,11,20,13.70
2011,10,23,11,21,13.70
2011,10,23,11,22,13.70
2011,10,23,11,23,13.70
2011,10,23,11,24,13.70
2011,10,23,11,25,13.80
2011,10,23,11,26,13.80
2011,10,23,11,27,13.90
2011,10,23,11,28,13.90
2011,10,23,11,29,14.00
2011,10,23,11,30,14.10
2011,10,23,11,31,14.10
2011,10,23,11,32,14.10
2011,10,23,11,33,14.00
2011,10,23,11,34,13.90
2011,10,23,11,35,13.80
2011,10,23,11,36,13.80
2011,10,23,11,37,13.80
2011,10,23,11,38,13.80
2011,10,23,11,39,13.80
2011,10,23,11,40,13.80
2011,10,23,11,41,13.80
2011,10,23,11,42,13.80
2011,10,23,11,43,13.70
2011,10,23,11,44,13.70
2011,10,23,11,45,13.70
2011,10,23,11,46,13.70
2011,10,23,11,47,13.70
2011,10,23,11,48,13.80
2011,10,23,11,49,13.80
2011,10,23,11,50,13.80
2011,10,23,11,51,13.70
2011,10,23,11,52,13.70
2011,10,23,11,53,13.70
2011,10,23,11,54,13.60
2011,10,23,11,55,13.60
2011,10,23,11,56,13.60
2011,10,23,11,57,13.60
2011,10,23,11,58,13.60
2011,10,23,11,59,13.70
2011,10,23,12,00,13.70
2011,10,23,12,01,13.60
2011,10,23,12,02,13.60
2011,10,23,12,03,13.60
2011,10,23,12,04,13.60
2011,10,23,12,05,13.60
2011,10,23,12,06,13.60
2011,10,23,12,07,13.60
2011,10,23,12,08,13.60
2011,10,23,12,09,13.60
2011,10,23,12,10,13.60
2011,10,23,12,11,13.60
2011,10,23,12,12,13.60
2011,10,23,12,13,13.60
2011,10,23,12,14,13.60
2011,10,23,12,15,13.50
2011,10,23,12,16,13.50
2011,10,23,12,17,13.50
2011,10,23,12,18,13.40
2011,10,23,12,19,13.40
2011,10,23,12,20,13.40
2011,10,23,12,21,13.40
2011,10,23,12,22,13.40
2011,10,23,12,23,13.40
2011,10,23,12,24,13.40
2011,10,23,12,25,13.40
2011,10,23,12,26,13.40
2011,10,23,12,27,13.50
2011,10,23,12,28,13.60
2011,10,23,12,29,13.60
2011,10,23,12,30,13.60
2011,10,23,12,31,13.70
2011,10,23,12,32,13.70
2011,10,23,12,33,13.80
2011,10,23,12,34,13.80
2011,10,23,12,35,13.80
2011,10,23,12,36,13.80
2011,10,23,12,37,13.70
2011,10,23,12,38,13.70
2011,10,23,12,39,13.60
2011,10,23,12,40,13.60
2011,10,23,12,41,13.60
2011,10,23,12,42,13.60
2011,10,23,12,43,13.60
2011,10,23,12,44,13.50
2011,10,23,12,45,13.50
2011,10,23,12,46,13.40
2011,10,23,12,47,13.40
2011,10,23,12,48,13.40
2011,10,23,12,49,13.40
2011,10,23,12,50,13.40
2011,10,23,12,51,13.50
2011,10,23,12,52,13.50
2011,10,23,12,53,13.60
2011,10,23,12,54,13.60
2011,10,23,12,55,13.70
2011,10,23,12,56,13.80
2011,10,23,12,57,13.90
2011,10,23,12,58,13.90
2011,10,23,12,59,14.00
2011,10,23,13,00,14.00
2011,10,23,13,01,14.00
2011,10,23,13,02,14.00
2011,10,23,13,03,14.00
2011,10,23,13,04,13.90
2011,10,23,13,05,13.80
2011,10,23,13,06,13.80
2011,10,23,13,07,13.70
2011,10,23,13,08,13.60
2011,10,23,13,09,13.50
2011,10,23,13,10,13.40
2011,10,23,13,11,13.30
2011,10,23,13,12,13.30
2011,10,23,13,13,13.20
2011,10,23,13,14,13.20
2011,10,23,13,15,13.20
2011,10,23,13,16,13.20
2011,10,23,13,17,13.20
2011,10,23,13,18,13.10
2011,10,23,13,19,13.10
2011,10,23,13,20,13.00
2011,10,23,13,21,12.90
2011,10,23,13,22,12.90
2011,10,23,13,23,12.90
2011,10,23,13,24,12.80
2011,10,23,13,25,12.80
2011,10,23,13,26,12.80
2011,10,23,13,27,12.80
2011,10,23,13,28,12.80
2011,10,23,13,29,12.70
2011,10,23,13,30,12.70
2011,10,23,13,31,12.70
2011,10,23,13,32,12.70
2011,10,23,13,33,12.70
2011,10,23,13,34,12.70
2011,10,23,13,35,12.70
2011,10,23,13,36,12.70
2011,10,23,13,37,12.70
2011,10,23,13,38,12.70
2011,10,23,13,39,12.70
2011,10,23,13,40,12.80
2011,10,23,13,41,12.80
2011,10,23,13,42,12.80
2011,10,23,13,43,12.80
2011,10,23,13,44,12.80
2011,10,23,13,45,12.80
2011,10,23,13,46,12.80
2011,10,23,13,47,12.80
2011,10,23,13,48,12.80
2011,10,23,13,49,12.80
2011,10,23,13,50,12.80
2011,10,23,13,51,12.80
2011,10,23,13,52,12.90
2011,10,23,13,53,12.90
2011,10,23,13,54,12.90
2011,10,23,13,55,13.00
2011,10,23,13,56,13.00
2011,10,23,13,57,13.10
2011,10,23,13,58,13.10
2011,10,23,13,59,13.10
2011,10,23,14,00,13.10
2011,10,23,14,01,13.20
2011,10,23,14,02,13.20
2011,10,23,14,03,13.30
2011,10,23,14,04,13.30
2011,10,23,14,05,13.30
2011,10,23,14,06,13.30
2011,10,23,14,07,13.20
2011,10,23,14,08,13.20
2011,10,23,14,09,13.20
2011,10,23,14,10,13.20
2011,10,23,14,11,13.20
2011,10,23,14,12,13.20
2011,10,23,14,13,13.20
2011,10,23,14,14,13.30
2011,10,23,14,15,13.30
2011,10,23,14,16,13.30
2011,10,23,14,17,13.30
2011,10,23,14,18,13.30
2011,10,23,14,19,13.30
2011,10,23,14,20,13.30
2011,10,23,14,21,13.20
2011,10,23,14,22,13.20
2011,10,23,14,23,13.20
2011,10,23,14,24,13.20
2011,10,23,14,25,13.10
2011,10,23,14,26,13.10
2011,10,23,14,27,13.10
2011,10,23,14,28,13.10
2011,10,23,14,29,13.10
2011,10,23,14,30,13.10
2011,10,23,14,31,13.10
2011,10,23,14,32,13.10
2011,10,23,14,33,13.10
2011,10,23,14,34,13.10
2011,10,23,14,35,13.20
2011,10,23,14,36,13.20
2011,10,23,14,37,13.20
2011,10,23,14,38,13.20
2011,10,23,14,39,13.20
2011,10,23,14,40,13.20
2011,10,23,14,41,13.20
2011,10,23,14,42,13.30
2011,10,23,14,43,13.30
2011,10,23,14,44,13.40
2011,10,23,14,45,13.40
2011,10,23,14,46,13.40
2011,10,23,14,47,13.40
2011,10,23,14,48,13.40
2011,10,23,14,49,13.40
2011,10,23,14,50,13.40
2011,10,23,14,51,13.30
2011,10,23,14,52,13.30
2011,10,23,14,53,13.30
2011,10,23,14,54,13.30
2011,10,23,14,55,13.30
2011,10,23,14,56,13.30
2011,10,23,14,57,13.30
2011,10,23,14,58,13.30
2011,10,23,14,59,13.20
2011,10,23,15,00,13.20
2011,10,23,15,01,13.20
2011,10,23,15,02,13.20
2011,10,23,15,03,13.20
2011,10,23,15,04,13.20
2011,10,23,15,05,13.20
2011,10,23,15,06,13.20
2011,10,23,15,07,13.20
2011,10,23,15,08,13.20
2011,10,23,15,09,13.20
2011,10,23,15,10,13.20
2011,10,23,15,11,13.20
2011,10,23,15,12,13.20
2011,10,23,15,13,13.30
2011,10,23,15,14,13.30
2011,10,23,15,15,13.30
2011,10,23,15,16,13.30
2011,10,23,15,17,13.30
2011,10,23,15,18,13.40
2011,10,23,15,19,13.30
2011,10,23,15,20,13.40
2011,10,23,15,21,13.40
2011,10,23,15,22,13.40
2011,10,23,15,23,13.40
2011,10,23,15,24,13.40
2011,10,23,15,25,13.50
2011,10,23,15,26,13.50
2011,10,23,15,27,13.60
2011,10,23,15,28,13.60
2011,10,23,15,29,13.60
2011,10,23,15,30,13.60
2011,10,23,15,31,13.60
2011,10,23,15,32,13.60
2011,10,23,15,33,13.60
2011,10,23,15,34,13.50
2011,10,23,15,35,13.50
2011,10,23,15,36,13.50
2011,10,23,15,37,13.50
2011,10,23,15,38,13.50
2011,10,23,15,39,13.50
2011,10,23,15,40,13.50
2011,10,23,15,41,13.40
2011,10,23,15,42,13.40
2011,10,23,15,43,13.40
2011,10,23,15,44,13.40
2011,10,23,15,45,13.40
2011,10,23,15,46,13.50
2011,10,23,15,47,13.50
2011,10,23,15,48,13.50
2011,10,23,15,49,13.50
2011,10,23,15,50,13.50
2011,10,23,15,51,13.50
2011,10,23,15,52,13.60
2011,10,23,15,53,13.60
2011,10,23,15,54,13.60
2011,10,23,15,55,13.60
2011,10,23,15,56,13.60
2011,10,23,15,57,13.60
2011,10,23,15,58,13.50
2011,10,23,15,59,13.50
2011,10,23,16,00,13.40
2011,10,23,16,01,13.40
2011,10,23,16,02,13.30
2011,10,23,16,03,13.30
2011,10,23,16,04,13.30
2011,10,23,16,05,13.20
2011,10,23,16,06,13.20
2011,10,23,16,07,13.20
2011,10,23,16,08,13.20
2011,10,23,16,09,13.20
2011,10,23,16,10,13.20
2011,10,23,16,11,13.20
2011,10,23,16,12,13.20
2011,10,23,16,13,13.20
2011,10,23,16,14,13.20
2011,10,23,16,15,13.20
2011,10,23,16,16,13.10
2011,10,23,16,17,13.10
2011,10,23,16,18,13.10
2011,10,23,16,19,13.10
2011,10,23,16,20,13.10
2011,10,23,16,21,13.10
2011,10,23,16,22,13.10
2011,10,23,16,23,13.10
2011,10,23,16,24,13.10
2011,10,23,16,25,13.00
2011,10,23,16,26,13.00
2011,10,23,16,27,13.00
2011,10,23,16,28,13.00
2011,10,23,16,29,13.00
2011,10,23,16,30,13.10
2011,10,23,16,31,13.10
2011,10,23,16,32,13.10
2011,10,23,16,33,13.10
2011,10,23,16,34,13.20
2011,10,23,16,35,13.20
2011,10,23,16,36,13.20
2011,10,23,16,37,13.20
2011,10,23,16,38,13.20
2011,10,23,16,39,13.20
2011,10,23,16,40,13.20
2011,10,23,16,41,13.20
2011,10,23,16,42,13.20
2011,10,23,16,43,13.10
2011,10,23,16,44,13.10
2011,10,23,16,45,13.10
2011,10,23,16,46,13.10
2011,10,23,16,47,13.10
2011,10,23,16,48,13.10
2011,10,23,16,49,13.10
2011,10,23,16,50,13.20
2011,10,23,16,51,13.20
2011,10,23,16,52,13.20
2011,10,23,16,53,13.20
2011,10,23,16,54,13.20
2011,10,23,16,55,13.20
2011,10,23,16,56,13.20
2011,10,23,16,57,13.20
2011,10,23,16,58,13.20
2011,10,23,16,59,13.10
2011,10,23,17,00,13.10
2011,10,23,17,01,13.00
2011,10,23,17,02,13.00
2011,10,23,17,03,12.90
2011,10,23,17,04,12.80
2011,10,23,17,05,12.80
2011,10,23,17,06,12.70
2011,10,23,17,07,12.70
2011,10,23,17,08,12.60
2011,10,23,17,09,12.60
2011,10,23,17,10,12.60
2011,10,23,17,11,12.50
2011,10,23,17,12,12.50
2011,10,23,17,13,12.40
2011,10,23,17,14,12.40
2011,10,23,17,15,12.40
2011,10,23,17,16,12.30
2011,10,23,17,17,12.30
2011,10,23,17,18,12.20
2011,10,23,17,19,12.20
2011,10,23,17,20,12.10
2011,10,23,17,21,12.10
2011,10,23,17,22,12.10
2011,10,23,17,23,12.10
2011,10,23,17,24,12.00
2011,10,23,17,25,12.00
2011,10,23,17,26,12.00
2011,10,23,17,27,12.00
2011,10,23,17,28,11.90
2011,10,23,17,29,11.90
2011,10,23,17,30,11.90
2011,10,23,17,31,11.90
2011,10,23,17,32,11.80
2011,10,23,17,33,11.80
2011,10,23,17,34,11.80
2011,10,23,17,35,11.80
2011,10,23,17,36,11.80
2011,10,23,17,37,11.70
2011,10,23,17,38,11.70
2011,10,23,17,39,11.70
2011,10,23,17,40,11.70
2011,10,23,17,41,11.70
2011,10,23,17,42,11.60
2011,10,23,17,43,11.60
2011,10,23,17,44,11.60